User: anonymous   Login
Location: Monroe
(41.9160°N, 83.3980°W)
Time: 17:48:22
(UTC-04:00)
Language:

deb Explorer IX - Orbit

View from above orbital plane
View from above orbital plane
View from above satellite
View from above satellite

Ground track
Ground track

The orbit data is extracted from the following two-line orbital elements,

1 00085U 61004C   15208.74442688  .00004785  00000-0  10727-2 0  9996
2 00085 038.7754 094.5873 0423652 170.1666 190.7689 14.13499406677410
Epoch (UTC): 27 July 2015 17:51:58
Eccentricity: 0.0423652
inclination: 38.7754°
perigee height: 541 km
apogee height: 1153 km
right ascension of ascending node: 94.5873°
argument of perigee: 170.1666°
revolutions per day: 14.13499406
mean anomaly at epoch: 190.7689°
orbit number at epoch: 67741

The dashed part of the orbit path shows where the satellite is in the earth's shadow,  

DLR